Location: College Park
(38.9810°N, 76.9370°W)
Time: 21:22:22

Humanity Star - Pass Details

Date: 11 March 2018
Orbit: 247 x 307 km, 82.9° (Epoch: 18 March)

Event Time Altitude Azimuth Distance (km) Brightness Sun altitude
Rises 20:40:55 0° 215° (SW) 1,916 8.7 -18.3°
Reaches altitude 10° 20:43:08 10° 238° (WSW) 1,104 7.8 -18.7°
Maximum altitude 20:44:46 17° 282° (WNW) 825 7.6 -19.0°
Drops below altitude 10° 20:46:25 10° 326° (NNW) 1,111 7.8 -19.3°
Sets 20:48:41 0° 350° (N) 1,936 8.7 -19.7°
